FLX711 SBMQ-SBCJ

Flight info

Callsign FLX711
Flight time 1h 2m
Altitude 34000
Route APURU DCT PACAI
Aircraft E190/M-SDE3GILORVW/S

Departure

Time 2026-05-04 19:06
Airport Macapá - Alberto Alcolumbre International Airport (SBMQ)

Arrival

Time 2026-05-04 20:08
Airport Carajás Airport (SBCJ)
Time Latitude Longitude Altitude Speed Heading
2026-05-04 18:30 0.05045 -51.06804 54 ft 0 kts 147°
2026-05-04 18:55 0.05049 -51.06806 54 ft 2 kts 147°
2026-05-04 18:55 0.05063 -51.06813 54 ft 2 kts 165°
2026-05-04 18:56 0.05077 -51.06815 54 ft 2 kts 185°
2026-05-04 18:56 0.05092 -51.06811 54 ft 2 kts 208°
2026-05-04 18:56 0.05104 -51.06802 54 ft 2 kts 229°
2026-05-04 18:56 0.05108 -51.06796 54 ft 1 kts 242°
2026-05-04 18:57 0.05110 -51.06792 54 ft 0 kts 238°
2026-05-04 18:58 0.05108 -51.06797 54 ft 1 kts 238°
2026-05-04 18:59 0.05101 -51.06808 54 ft 2 kts 243°
2026-05-04 18:59 0.05103 -51.06824 55 ft 2 kts 297°
2026-05-04 18:59 0.05119 -51.06842 55 ft 4 kts 322°
2026-05-04 18:59 0.05143 -51.06870 56 ft 6 kts 280°
2026-05-04 19:00 0.05122 -51.06917 57 ft 8 kts 237°
2026-05-04 19:00 0.05085 -51.06975 58 ft 10 kts 237°
2026-05-04 19:00 0.05046 -51.07045 58 ft 11 kts 263°
2026-05-04 19:00 0.05099 -51.07104 58 ft 12 kts 326°
2026-05-04 19:01 0.05088 -51.07181 58 ft 13 kts 237°
2026-05-04 19:01 0.05035 -51.07262 58 ft 14 kts 237°
2026-05-04 19:01 0.04978 -51.07351 58 ft 15 kts 237°
2026-05-04 19:01 0.04913 -51.07446 58 ft 17 kts 237°
2026-05-04 19:02 0.04848 -51.07552 58 ft 18 kts 239°
2026-05-04 19:02 0.04777 -51.07664 58 ft 19 kts 236°
2026-05-04 19:02 0.04701 -51.07782 58 ft 20 kts 237°
2026-05-04 19:02 0.04624 -51.07900 56 ft 16 kts 237°
2026-05-04 19:03 0.04566 -51.07954 55 ft 7 kts 195°
2026-05-04 19:03 0.04542 -51.07986 55 ft 6 kts 307°
2026-05-04 19:03 0.04577 -51.07972 55 ft 0 kts 55°
2026-05-04 19:05 0.04579 -51.07968 55 ft 0 kts 55°
2026-05-04 19:05 0.04586 -51.07959 55 ft 9 kts 56°
2026-05-04 19:05 0.04795 -51.07635 58 ft 101 kts 57°
2026-05-04 19:06 0.05311 -51.06835 238 ft 157 kts 56°
2026-05-04 19:06 0.05953 -51.05831 746 ft 188 kts 60°
2026-05-04 19:06 0.06697 -51.04662 1401 ft 210 kts 56°
2026-05-04 19:06 0.07471 -51.03438 2400 ft 215 kts 65°
2026-05-04 19:07 0.07572 -51.02010 3528 ft 216 kts 108°
2026-05-04 19:07 0.06644 -51.00906 4590 ft 220 kts 150°
2026-05-04 19:07 0.05157 -51.00557 5581 ft 224 kts 169°
2026-05-04 19:07 0.03628 -51.00377 6512 ft 225 kts 169°
2026-05-04 19:08 0.02071 -51.00195 7376 ft 228 kts 169°
2026-05-04 19:08 0.00497 -51.00010 8228 ft 231 kts 168°
2026-05-04 19:08 -0.01095 -50.99823 9084 ft 233 kts 168°
2026-05-04 19:08 -0.02698 -50.99635 9923 ft 235 kts 169°
2026-05-04 19:09 -0.04322 -50.99443 10684 ft 238 kts 169°
2026-05-04 19:09 -0.05977 -50.99249 11423 ft 242 kts 169°
2026-05-04 19:09 -0.07655 -50.99051 12195 ft 245 kts 169°
2026-05-04 19:09 -0.09352 -50.98852 12932 ft 248 kts 169°
2026-05-04 19:10 -0.11077 -50.98649 13649 ft 252 kts 169°
2026-05-04 19:10 -0.12815 -50.98444 14358 ft 255 kts 169°
2026-05-04 19:10 -0.14606 -50.98234 15044 ft 259 kts 169°
2026-05-04 19:10 -0.16398 -50.98023 15715 ft 263 kts 169°
2026-05-04 19:11 -0.18213 -50.97810 16375 ft 266 kts 169°
2026-05-04 19:11 -0.20073 -50.97591 17023 ft 269 kts 170°
2026-05-04 19:11 -0.21941 -50.97371 17654 ft 272 kts 170°
2026-05-04 19:11 -0.23828 -50.97149 18319 ft 273 kts 170°
2026-05-04 19:12 -0.25694 -50.96930 18988 ft 273 kts 170°
2026-05-04 19:12 -0.29480 -50.96485 20272 ft 275 kts 170°
2026-05-04 19:12 -0.31383 -50.96261 20878 ft 275 kts 171°
2026-05-04 19:13 -0.33286 -50.96037 21462 ft 277 kts 171°
2026-05-04 19:13 -0.35204 -50.95812 22036 ft 278 kts 171°
2026-05-04 19:13 -0.37145 -50.95584 22613 ft 279 kts 171°
2026-05-04 19:13 -0.39076 -50.95356 23140 ft 281 kts 171°
2026-05-04 19:14 -0.41038 -50.95125 23622 ft 285 kts 171°
2026-05-04 19:14 -0.43003 -50.94894 24105 ft 289 kts 171°
2026-05-04 19:14 -0.45034 -50.94656 24611 ft 292 kts 171°
2026-05-04 19:14 -0.47041 -50.94420 25102 ft 295 kts 171°
2026-05-04 19:15 -0.49101 -50.94177 25582 ft 298 kts 171°
2026-05-04 19:15 -0.51164 -50.93935 26053 ft 300 kts 171°
2026-05-04 19:15 -0.53266 -50.93687 26518 ft 303 kts 171°
2026-05-04 19:15 -0.55348 -50.93442 26966 ft 306 kts 171°
2026-05-04 19:16 -0.57490 -50.93191 27410 ft 309 kts 171°
2026-05-04 19:16 -0.59634 -50.92938 27847 ft 311 kts 171°
2026-05-04 19:16 -0.61804 -50.92683 28264 ft 314 kts 171°
2026-05-04 19:16 -0.63975 -50.92428 28680 ft 317 kts 171°
2026-05-04 19:17 -0.66195 -50.92166 29130 ft 319 kts 172°
2026-05-04 19:17 -0.68395 -50.91908 29554 ft 321 kts 172°
2026-05-04 19:17 -0.70647 -50.91643 29963 ft 324 kts 172°
2026-05-04 19:17 -0.72879 -50.91380 30370 ft 326 kts 172°
2026-05-04 19:18 -0.75164 -50.91112 30763 ft 329 kts 172°
2026-05-04 19:18 -0.77449 -50.90843 31160 ft 331 kts 173°
2026-05-04 19:18 -0.79730 -50.90575 31532 ft 333 kts 173°
2026-05-04 19:18 -0.82044 -50.90302 31904 ft 336 kts 173°
2026-05-04 19:19 -0.84407 -50.90025 32265 ft 338 kts 173°
2026-05-04 19:19 -0.86770 -50.89746 32631 ft 341 kts 173°
2026-05-04 19:19 -0.89142 -50.89468 33010 ft 343 kts 173°
2026-05-04 19:19 -0.91509 -50.89189 33382 ft 345 kts 173°
2026-05-04 19:20 -0.93916 -50.88906 33729 ft 349 kts 173°
2026-05-04 19:20 -0.96392 -50.88615 33723 ft 362 kts 173°
2026-05-04 19:20 -0.98910 -50.88319 33762 ft 373 kts 173°
2026-05-04 19:20 -1.01530 -50.88010 33803 ft 384 kts 173°
2026-05-04 19:21 -1.04257 -50.87690 33835 ft 396 kts 173°
2026-05-04 19:21 -1.07050 -50.87361 33869 ft 407 kts 173°
2026-05-04 19:21 -1.09826 -50.87026 33880 ft 408 kts 172°
2026-05-04 19:22 -1.15595 -50.86143 33895 ft 428 kts 171°
2026-05-04 19:22 -1.18591 -50.85688 33892 ft 439 kts 171°
2026-05-04 19:22 -1.21658 -50.85223 33891 ft 448 kts 171°
2026-05-04 19:23 -1.27983 -50.84265 33884 ft 466 kts 171°
2026-05-04 19:23 -1.34456 -50.83284 33879 ft 471 kts 171°
2026-05-04 19:24 -1.41000 -50.82293 33877 ft 474 kts 171°
2026-05-04 19:24 -1.47483 -50.81311 33875 ft 472 kts 171°
2026-05-04 19:25 -1.54001 -50.80323 33872 ft 472 kts 171°
2026-05-04 19:25 -1.60509 -50.79337 33872 ft 472 kts 171°
2026-05-04 19:26 -1.67013 -50.78351 33876 ft 471 kts 171°
2026-05-04 19:26 -1.73523 -50.77365 33877 ft 473 kts 171°
2026-05-04 19:27 -1.80059 -50.76374 33880 ft 472 kts 171°
2026-05-04 19:27 -1.86524 -50.75394 33881 ft 470 kts 171°
2026-05-04 19:28 -1.93021 -50.74410 33884 ft 471 kts 171°
2026-05-04 19:28 -1.99520 -50.73424 33881 ft 471 kts 171°
2026-05-04 19:29 -2.06025 -50.72438 33885 ft 470 kts 171°
2026-05-04 19:29 -2.12505 -50.71455 33884 ft 470 kts 171°
2026-05-04 19:30 -2.18991 -50.70472 33884 ft 470 kts 171°
2026-05-04 19:30 -2.25504 -50.69484 33873 ft 472 kts 171°
2026-05-04 19:31 -2.32016 -50.68497 33871 ft 471 kts 171°
2026-05-04 19:31 -2.38492 -50.67514 33866 ft 471 kts 171°
2026-05-04 19:32 -2.44997 -50.66528 33866 ft 471 kts 171°
2026-05-04 19:32 -2.51532 -50.65650 33869 ft 472 kts 172°
2026-05-04 19:33 -2.58055 -50.64819 33871 ft 471 kts 172°
2026-05-04 19:33 -2.64542 -50.63990 33867 ft 470 kts 173°
2026-05-04 19:34 -2.71057 -50.63158 33865 ft 471 kts 173°
2026-05-04 19:34 -2.77580 -50.62325 33864 ft 471 kts 173°
2026-05-04 19:35 -2.84121 -50.61489 33869 ft 471 kts 173°
2026-05-04 19:35 -2.90617 -50.60659 33866 ft 472 kts 173°
2026-05-04 19:36 -2.97148 -50.59825 33867 ft 471 kts 172°
2026-05-04 19:36 -3.03671 -50.58991 33868 ft 470 kts 172°
2026-05-04 19:37 -3.10165 -50.58161 33873 ft 471 kts 173°
2026-05-04 19:37 -3.16676 -50.57329 33874 ft 471 kts 173°
2026-05-04 19:38 -3.23223 -50.56492 33876 ft 470 kts 173°
2026-05-04 19:38 -3.29702 -50.55664 33876 ft 470 kts 173°
2026-05-04 19:39 -3.36219 -50.54831 33881 ft 471 kts 173°
2026-05-04 19:39 -3.42714 -50.54000 33888 ft 471 kts 173°
2026-05-04 19:40 -3.49251 -50.53164 33891 ft 471 kts 173°
2026-05-04 19:40 -3.55757 -50.52331 33892 ft 472 kts 173°
2026-05-04 19:41 -3.62324 -50.51491 33895 ft 471 kts 173°
2026-05-04 19:41 -3.68821 -50.50660 33896 ft 472 kts 173°
2026-05-04 19:42 -3.75283 -50.49833 33894 ft 459 kts 173°
2026-05-04 19:42 -3.81596 -50.49025 33897 ft 459 kts 173°
2026-05-04 19:43 -3.87980 -50.48208 33898 ft 460 kts 173°
2026-05-04 19:43 -3.94362 -50.47390 33897 ft 459 kts 173°
2026-05-04 19:44 -4.00688 -50.46580 33898 ft 459 kts 173°
2026-05-04 19:44 -4.07042 -50.45766 33899 ft 459 kts 173°
2026-05-04 19:45 -4.13433 -50.44947 33904 ft 460 kts 173°
2026-05-04 19:45 -4.19800 -50.44132 33906 ft 461 kts 173°
2026-05-04 19:46 -4.26156 -50.43317 33898 ft 448 kts 173°
2026-05-04 19:46 -4.32261 -50.42535 33909 ft 442 kts 173°
2026-05-04 19:47 -4.38395 -50.41748 33432 ft 445 kts 173°
2026-05-04 19:47 -4.41441 -50.41358 32962 ft 444 kts 173°
2026-05-04 19:47 -4.44539 -50.40961 32478 ft 444 kts 173°
2026-05-04 19:47 -4.47588 -50.40570 31999 ft 446 kts 173°
2026-05-04 19:48 -4.50678 -50.40174 31506 ft 447 kts 173°
2026-05-04 19:48 -4.53762 -50.39778 31011 ft 448 kts 173°
2026-05-04 19:48 -4.56883 -50.39378 30510 ft 448 kts 173°
2026-05-04 19:48 -4.59970 -50.38982 30013 ft 446 kts 173°
2026-05-04 19:49 -4.63050 -50.38587 29520 ft 442 kts 173°
2026-05-04 19:49 -4.66104 -50.38195 29033 ft 438 kts 173°
2026-05-04 19:49 -4.69085 -50.37813 28555 ft 433 kts 173°
2026-05-04 19:49 -4.72081 -50.37428 28086 ft 430 kts 173°
2026-05-04 19:50 -4.75051 -50.37047 27612 ft 427 kts 172°
2026-05-04 19:50 -4.78005 -50.36668 27138 ft 424 kts 172°
2026-05-04 19:50 -4.80895 -50.36298 26674 ft 421 kts 172°
2026-05-04 19:50 -4.83790 -50.35926 26210 ft 417 kts 172°
2026-05-04 19:51 -4.86673 -50.35556 25750 ft 414 kts 172°
2026-05-04 19:51 -4.89540 -50.35187 25290 ft 412 kts 172°
2026-05-04 19:51 -4.92364 -50.34825 24842 ft 409 kts 172°
2026-05-04 19:51 -4.95200 -50.34461 24388 ft 405 kts 171°
2026-05-04 19:52 -4.97986 -50.34103 23942 ft 403 kts 171°
2026-05-04 19:52 -5.00734 -50.33751 23507 ft 401 kts 171°
2026-05-04 19:52 -5.03512 -50.33393 23061 ft 398 kts 171°
2026-05-04 19:52 -5.06261 -50.33041 22618 ft 395 kts 171°
2026-05-04 19:53 -5.08971 -50.32693 22186 ft 392 kts 171°
2026-05-04 19:53 -5.11666 -50.32346 21756 ft 390 kts 171°
2026-05-04 19:53 -5.14374 -50.31998 21318 ft 387 kts 171°
2026-05-04 19:53 -5.17021 -50.31658 20897 ft 384 kts 171°
2026-05-04 19:54 -5.19698 -50.31314 20466 ft 382 kts 171°
2026-05-04 19:54 -5.22316 -50.30978 20041 ft 380 kts 171°
2026-05-04 19:54 -5.24940 -50.30640 19620 ft 378 kts 171°
2026-05-04 19:54 -5.27545 -50.30306 19201 ft 375 kts 171°
2026-05-04 19:55 -5.30138 -50.29973 18785 ft 374 kts 171°
2026-05-04 19:55 -5.32700 -50.29643 18380 ft 372 kts 170°
2026-05-04 19:55 -5.35277 -50.29312 17965 ft 369 kts 170°
2026-05-04 19:55 -5.37834 -50.28983 17556 ft 367 kts 170°
2026-05-04 19:56 -5.40347 -50.28660 17155 ft 365 kts 170°
2026-05-04 19:56 -5.42874 -50.28335 16749 ft 363 kts 170°
2026-05-04 19:56 -5.45392 -50.28011 16346 ft 361 kts 170°
2026-05-04 19:56 -5.47865 -50.27693 15947 ft 359 kts 170°
2026-05-04 19:57 -5.50359 -50.27372 15545 ft 358 kts 170°
2026-05-04 19:57 -5.52806 -50.27058 15153 ft 356 kts 170°
2026-05-04 19:57 -5.55275 -50.26740 14750 ft 355 kts 170°
2026-05-04 19:57 -5.57719 -50.26426 14358 ft 353 kts 170°
2026-05-04 19:58 -5.60153 -50.26112 13967 ft 351 kts 170°
2026-05-04 19:58 -5.62603 -50.25797 13573 ft 350 kts 170°
2026-05-04 19:58 -5.65017 -50.25486 13186 ft 348 kts 170°
2026-05-04 19:58 -5.67424 -50.25177 12798 ft 347 kts 170°
2026-05-04 19:59 -5.69795 -50.24871 12418 ft 345 kts 170°
2026-05-04 19:59 -5.72188 -50.24563 12034 ft 343 kts 170°
2026-05-04 19:59 -5.74566 -50.24257 11652 ft 340 kts 169°
2026-05-04 19:59 -5.76882 -50.23960 11278 ft 334 kts 169°
2026-05-04 20:00 -5.79167 -50.23666 10915 ft 325 kts 169°
2026-05-04 20:00 -5.81373 -50.23382 10567 ft 316 kts 169°
2026-05-04 20:00 -5.83552 -50.23101 10228 ft 307 kts 169°
2026-05-04 20:00 -5.85652 -50.22831 9898 ft 300 kts 169°
2026-05-04 20:01 -5.87713 -50.22565 9575 ft 295 kts 169°
2026-05-04 20:01 -5.89731 -50.22305 9263 ft 294 kts 169°
2026-05-04 20:01 -5.91757 -50.22044 8947 ft 292 kts 169°
2026-05-04 20:01 -5.93783 -50.21782 8632 ft 291 kts 169°
2026-05-04 20:02 -5.95778 -50.21526 8312 ft 289 kts 169°
2026-05-04 20:02 -5.97781 -50.21268 7994 ft 286 kts 169°
2026-05-04 20:02 -5.99751 -50.21014 7678 ft 283 kts 168°
2026-05-04 20:02 -6.01695 -50.20764 7360 ft 275 kts 168°
2026-05-04 20:03 -6.03562 -50.20524 7054 ft 267 kts 168°
2026-05-04 20:03 -6.05378 -50.20305 6828 ft 257 kts 169°
2026-05-04 20:03 -6.07130 -50.20099 6559 ft 249 kts 169°
2026-05-04 20:03 -6.08832 -50.19899 6302 ft 243 kts 168°
2026-05-04 20:04 -6.10498 -50.19703 6029 ft 237 kts 168°
2026-05-04 20:04 -6.12129 -50.19441 5731 ft 228 kts 153°
2026-05-04 20:04 -6.13217 -50.18472 5594 ft 203 kts 114°
2026-05-04 20:04 -6.13459 -50.17117 5211 ft 199 kts 90°
2026-05-04 20:05 -6.13423 -50.15734 4868 ft 195 kts 88°
2026-05-04 20:05 -6.13337 -50.14389 4572 ft 190 kts 86°
2026-05-04 20:05 -6.13226 -50.13085 4301 ft 185 kts 85°
2026-05-04 20:05 -6.13103 -50.11832 4079 ft 180 kts 84°
2026-05-04 20:06 -6.12970 -50.10578 3870 ft 180 kts 84°
2026-05-04 20:06 -6.12831 -50.09316 3642 ft 182 kts 84°
2026-05-04 20:06 -6.12686 -50.08043 3405 ft 184 kts 84°
2026-05-04 20:06 -6.12543 -50.06797 3164 ft 174 kts 84°
2026-05-04 20:07 -6.12412 -50.05680 2975 ft 151 kts 84°
2026-05-04 20:07 -6.12296 -50.04687 2743 ft 134 kts 83°
2026-05-04 20:07 -6.12190 -50.03783 2517 ft 130 kts 84°
2026-05-04 20:07 -6.12085 -50.02887 2369 ft 130 kts 83°
2026-05-04 20:08 -6.11978 -50.01975 2219 ft 132 kts 84°
2026-05-04 20:08 -6.11874 -50.01063 2051 ft 125 kts 84°
2026-05-04 20:08 -6.11789 -50.00341 2038 ft 74 kts 83°
2026-05-04 20:08 -6.11747 -49.99991 2038 ft 39 kts 83°
2026-05-04 20:09 -6.11717 -49.99740 2037 ft 32 kts 83°
2026-05-04 20:09 -6.11700 -49.99590 2035 ft 11 kts 84°
2026-05-04 20:09 -6.11678 -49.99534 2034 ft 4 kts 113°
2026-05-04 20:09 -6.11693 -49.99544 2034 ft 3 kts 254°
2026-05-04 20:10 -6.11697 -49.99577 2035 ft 6 kts 261°
2026-05-04 20:10 -6.11705 -49.99632 2036 ft 9 kts 264°
2026-05-04 20:10 -6.11714 -49.99712 2037 ft 13 kts 263°
2026-05-04 20:10 -6.11726 -49.99818 2037 ft 16 kts 263°
2026-05-04 20:11 -6.11740 -49.99934 2037 ft 17 kts 263°
2026-05-04 20:11 -6.11754 -50.00056 2038 ft 18 kts 263°
2026-05-04 20:11 -6.11759 -50.00146 2035 ft 13 kts 288°
2026-05-04 20:11 -6.11696 -50.00174 2036 ft 9 kts 354°
2026-05-04 20:12 -6.11637 -50.00180 2038 ft 7 kts 354°
2026-05-04 20:12 -6.11598 -50.00186 2041 ft 3 kts 351°
2026-05-04 20:12 -6.11582 -50.00188 2041 ft 1 kts 359°
2026-05-04 20:12 -6.11567 -50.00183 2042 ft 3 kts 26°
2026-05-04 20:13 -6.11540 -50.00168 2043 ft 4 kts 31°
2026-05-04 20:13 -6.11529 -50.00161 2044 ft 0 kts 31°